This is the latest recevied weather packets stored in our database for station/object IK2ILW-4. If no packets are shown the sender has not sent any weather packets the latest 10 day(s).
| Time | Temp. | Humidity | Pressure | Rain* | Wind** | Luminosity | Snow |
|---|---|---|---|---|---|---|---|
| 1787840270 | 22.78° C | 70% | 1023.5 hPa | 0 mm | - | 424 W/m² | - |
| 1787839972 | 22.78° C | 69% | 1023.6 hPa | 0 mm | - | 476 W/m² | - |
| 1787839672 | 23.33° C | 66% | 1023.6 hPa | 0 mm | - | 529 W/m² | - |
| 1787839357 | 22.78° C | 70% | 1023.6 hPa | 0 mm | - | 540 W/m² | - |
| 1787839056 | 22.78° C | 70% | 1023.6 hPa | 0 mm | - | 541 W/m² | - |
| 1787838756 | 22.22° C | 72% | 1023.6 hPa | 0 mm | - | 533 W/m² | - |
| 1787838466 | 22.22° C | 73% | 1023.6 hPa | 0 mm | - | 540 W/m² | - |
| 1787838160 | 22.78° C | 72% | 1023.6 hPa | 0 mm | - | 529 W/m² | - |
| 1787837860 | 22.78° C | 71% | 1023.6 hPa | 0 mm | - | 541 W/m² | - |
| 1787837573 | 22.78° C | 74% | 1023.6 hPa | 0 mm | - | 554 W/m² | - |
| 1787837270 | 22.22° C | 72% | 1023.6 hPa | 0 mm | - | 501 W/m² | - |
| 1787836962 | 22.22° C | 72% | 1023.6 hPa | 0 mm | - | 529 W/m² | - |
| 1787836670 | 22.78° C | 71% | 1023.6 hPa | 0 mm | - | 596 W/m² | - |
| 1787836369 | 23.33° C | 70% | 1023.4 hPa | 0 mm | - | 596 W/m² | - |
| 1787836063 | 23.33° C | 72% | 1023.4 hPa | 0 mm | - | 596 W/m² | - |
| 1787835774 | 23.33° C | 75% | 1023.4 hPa | 0 mm | - | 538 W/m² | - |
| 1787835470 | 22.78° C | 77% | 1023.5 hPa | 0 mm | - | 598 W/m² | - |
| 1787835167 | 22.22° C | 77% | 1023.5 hPa | 0 mm | - | 617 W/m² | - |
| 1787834874 | 22.22° C | 77% | 1023.5 hPa | 0 mm | - | 552 W/m² | - |
| 1787834566 | 22.22° C | 77% | 1023.5 hPa | 0 mm | - | 520 W/m² | - |
| 1787834262 | 22.78° C | 75% | 1023.5 hPa | 0 mm | - | 541 W/m² | - |
| 1787833971 | 22.78° C | 75% | 1023.5 hPa | 0 mm | - | 325 W/m² | - |
| 1787833669 | 22.78° C | 74% | 1023.6 hPa | 0 mm | - | 647 W/m² | - |
| 1787833363 | 22.78° C | 74% | 1023.6 hPa | 0 mm | - | 642 W/m² | - |
| 1787833071 | 22.78° C | 77% | 1023.6 hPa | 0 mm | - | 712 W/m² | - |
* Rain since midnight (hover to see other rain measurements)
** Current wind speed in m/s (hover to see current wind gust speed)